Voltar ao catálogo

OPS 7898

P/L 1

AtivoMilitarLEO
NORAD 5678·PAYLOAD·🇺🇸 United States

Lançado Dec 14, 1971 de Vandenberg Space Force Base

Loading…

Próximas Passagens (próximas 24 horas)

TLE

AtualizadoSource: Space-Track

Época: Sep 14, 2026, 06:28 UTC

1 05678U 71110A   26257.26998247 -.00000027  00000-0  24090-4 0  9994
2 05678  69.9889 200.8392 0005569  63.2841 296.8823 13.74144157369025

Acompanhe OPS 7898 em tempo real com AllMySat

Download on the App Store